| time (UTC) | temp C | wind direction | speed KPH | gust KPH | rain 1hr cm | rain 24hr cm | rain mn cm | humidity % | barometer mb |
| 20260902100041 | 20 | 205 | 1.6 | 8.0 | 0.00 | 0.03 | 0.03 | 70 | 1021.8 |
| 20260902095531 | 20 | 209 | 1.6 | 8.0 | 0.00 | 0.03 | 0.03 | 74 | 1022.0 |
| 20260902095031 | 19 | 209 | 3.2 | 8.0 | 0.00 | 0.03 | 0.03 | 73 | 1022.0 |
| 20260902094531 | 20 | 207 | 3.2 | 8.0 | 0.00 | 0.03 | 0.03 | 73 | 1022.1 |
| 20260902094030 | 20 | 212 | 4.8 | 8.0 | 0.00 | 0.03 | 0.03 | 74 | 1022.0 |
| 20260902093529 | 18 | 215 | 0.0 | 6.4 | 0.00 | 0.03 | 0.03 | 76 | 1022.1 |
| 20260902093029 | 19 | 215 | 1.6 | 6.4 | 0.00 | 0.03 | 0.03 | 76 | 1022.0 |
| 20260902092532 | 18 | 215 | 3.2 | 8.0 | 0.00 | 0.03 | 0.03 | 77 | 1022.1 |
| 20260902092032 | 18 | 217 | 3.2 | 8.0 | 0.00 | 0.03 | 0.03 | 78 | 1022.1 |
| 20260902091527 | 18 | 219 | 3.2 | 8.0 | 0.00 | 0.03 | 0.03 | 78 | 1022.1 |
| 20260902091025 | 18 | 221 | 1.6 | 8.0 | 0.00 | 0.03 | 0.03 | 79 | 1022.1 |
| 20260902090525 | 17 | 220 | 3.2 | 8.0 | 0.00 | 0.03 | 0.03 | 79 | 1022.2 |
| 20260902090027 | 17 | 220 | 1.6 | 6.4 | 0.00 | 0.03 | 0.03 | 81 | 1022.1 |
| 20260902085522 | 17 | 220 | 1.6 | 6.4 | 0.00 | 0.03 | 0.03 | 81 | 1022.1 |
| 20260902085022 | 17 | 220 | 0.0 | 4.8 | 0.00 | 0.03 | 0.03 | 82 | 1022.1 |
| 20260902084522 | 17 | 220 | 1.6 | 6.4 | 0.00 | 0.03 | 0.03 | 81 | 1022.1 |
| 20260902084026 | 17 | 221 | 3.2 | 8.0 | 0.00 | 0.03 | 0.03 | 81 | 1022.0 |
| 20260902083521 | 17 | 221 | 3.2 | 8.0 | 0.00 | 0.03 | 0.03 | 82 | 1022.1 |
| 20260902083029 | 17 | 252 | 1.6 | 8.0 | 0.00 | 0.03 | 0.03 | 81 | 1022.1 |
| 20260902082521 | 17 | 253 | 4.8 | 8.0 | 0.00 | 0.03 | 0.03 | 81 | 1022.2 |
| 20260902082020 | 17 | 343 | 1.6 | 6.4 | 0.00 | 0.03 | 0.03 | 83 | 1022.0 |
| 20260902081519 | 17 | 342 | 3.2 | 6.4 | 0.00 | 0.03 | 0.03 | 84 | 1022.1 |
| 20260902081018 | 17 | 343 | 0.0 | 4.8 | 0.00 | 0.03 | 0.03 | 85 | 1022.1 |
| 20260902080517 | 16 | 342 | 0.0 | 4.8 | 0.00 | 0.03 | 0.03 | 85 | 1022.0 |
| 20260902080017 | 16 | 342 | 0.0 | 3.2 | 0.00 | 0.03 | 0.03 | 85 | 1022.0 |
| 20260902075516 | 16 | 342 | 0.0 | 3.2 | 0.00 | 0.03 | 0.03 | 85 | 1022.1 |
| 20260902075015 | 16 | 342 | 1.6 | 3.2 | 0.00 | 0.03 | 0.03 | 86 | 1022.0 |
| 20260902074523 | 16 | 342 | 1.6 | 4.8 | 0.00 | 0.03 | 0.03 | 86 | 1022.0 |
| 20260902074015 | 16 | 342 | 1.6 | 4.8 | 0.00 | 0.03 | 0.03 | 89 | 1022.1 |
| 20260902073516 | 15 | 342 | 0.0 | 0.0 | 0.00 | 0.03 | 0.03 | 90 | 1022.0 |
| 20260902073012 | 15 | 342 | 0.0 | 0.0 | 0.00 | 0.03 | 0.03 | 92 | 1022.0 |
| 20260902072511 | 14 | 342 | 0.0 | 0.0 | 0.00 | 0.03 | 0.03 | 92 | 1022.0 |
| 20260902072012 | 14 | 342 | 0.0 | 1.6 | 0.00 | 0.03 | 0.03 | 93 | 1021.8 |
| 20260902071512 | 13 | 342 | 0.0 | 1.6 | 0.00 | 0.03 | 0.03 | 93 | 1021.8 |
| 20260902071014 | 13 | 342 | 0.0 | 1.6 | 0.00 | 0.03 | 0.03 | 93 | 1021.8 |
| 20260902070512 | 13 | 342 | 0.0 | 0.0 | 0.00 | 0.03 | 0.03 | 94 | 1021.8 |
| 20260902070009 | 12 | 342 | 0.0 | 1.6 | 0.00 | 0.03 | 0.03 | 93 | 1021.7 |
| 20260902065509 | 12 | 342 | 0.0 | 0.0 | 0.00 | 0.03 | 0.03 | 93 | 1021.8 |
| 20260902065010 | 12 | 342 | 0.0 | 1.6 | 0.00 | 0.03 | 0.03 | 93 | 1021.8 |
| 20260902064511 | 12 | 342 | 0.0 | 1.6 | 0.00 | 0.03 | 0.03 | 94 | 1021.7 |
| 20260902064008 | 12 | 342 | 0.0 | 1.6 | 0.00 | 0.03 | 0.03 | 94 | 1021.7 |
| 20260902063512 | 12 | 342 | 0.0 | 0.0 | 0.00 | 0.03 | 0.03 | 94 | 1021.7 |
| 20260902063008 | 12 | 342 | 0.0 | 0.0 | 0.00 | 0.03 | 0.03 | 93 | 1021.7 |
| 20260902062507 | 12 | 342 | 0.0 | 0.0 | 0.00 | 0.03 | 0.03 | 94 | 1021.6 |
| 20260902062012 | 12 | 342 | 0.0 | 0.0 | 0.00 | 0.03 | 0.03 | 94 | 1021.7 |
| 20260902061518 | 12 | 342 | 0.0 | 0.0 | 0.00 | 0.03 | 0.03 | 93 | 1021.5 |
| 20260902061007 | 11 | 342 | 0.0 | 3.2 | 0.00 | 0.03 | 0.03 | 93 | 1021.6 |
| 20260902060507 | 11 | 342 | 0.0 | 4.8 | 0.00 | 0.03 | 0.03 | 93 | 1021.5 |
| 20260902060010 | 11 | 342 | 0.0 | 3.2 | 0.00 | 0.03 | 0.03 | 93 | 1021.5 |
| 20260902055508 | 11 | 342 | 0.0 | 3.2 | 0.00 | 0.03 | 0.03 | 93 | 1021.6 |
| 20260902055006 | 11 | 342 | 0.0 | 3.2 | 0.00 | 0.03 | 0.03 | 93 | 1021.5 |
| 20260902054506 | 11 | 342 | 0.0 | 0.0 | 0.00 | 0.03 | 0.03 | 94 | 1021.5 |
| 20260902054005 | 11 | 342 | 0.0 | 0.0 | 0.00 | 0.03 | 0.03 | 93 | 1021.7 |
| 20260902053506 | 11 | 342 | 0.0 | 0.0 | 0.00 | 0.03 | 0.03 | 94 | 1021.7 |
| 20260902053007 | 11 | 342 | 0.0 | 0.0 | 0.00 | 0.03 | 0.03 | 94 | 1021.6 |
| 20260902052507 | 11 | 342 | 0.0 | 0.0 | 0.00 | 0.03 | 0.03 | 94 | 1021.7 |
| 20260902052008 | 11 | 342 | 0.0 | 0.0 | 0.00 | 0.03 | 0.03 | 93 | 1021.7 |
| 20260902051505 | 11 | 342 | 0.0 | 0.0 | 0.00 | 0.03 | 0.03 | 94 | 1021.5 |
| 20260902051004 | 11 | 342 | 0.0 | 0.0 | 0.00 | 0.03 | 0.03 | 94 | 1021.4 |
| 20260902050505 | 11 | 342 | 0.0 | 0.0 | 0.00 | 0.03 | 0.03 | 93 | 1021.4 |
| 20260902050007 | 11 | 342 | 0.0 | 0.0 | 0.00 | 0.03 | 0.03 | 93 | 1021.3 |
| 20260902045504 | 11 | 342 | 0.0 | 0.0 | 0.00 | 0.03 | 0.03 | 93 | 1021.2 |
| 20260902045004 | 11 | 342 | 0.0 | 0.0 | 0.03 | 0.03 | 0.03 | 94 | 1021.2 |
| 20260902044504 | 11 | 342 | 0.0 | 1.6 | 0.03 | 0.03 | 0.03 | 93 | 1021.2 |
| 20260902044004 | 11 | 342 | 0.0 | 1.6 | 0.03 | 0.03 | 0.03 | 93 | 1021.2 |
| 20260902043504 | 11 | 342 | 0.0 | 0.0 | 0.03 | 0.03 | 0.03 | 94 | 1021.2 |
| 20260902043008 | 11 | 342 | 0.0 | 0.0 | 0.03 | 0.03 | 0.03 | 93 | 1021.3 |
| 20260902042504 | 11 | 342 | 0.0 | 1.6 | 0.03 | 0.03 | 0.03 | 93 | 1021.5 |
| 20260902042003 | 11 | 342 | 0.0 | 1.6 | 0.03 | 0.03 | 0.03 | 93 | 1021.4 |
| 20260902041502 | 11 | 342 | 0.0 | 0.0 | 0.03 | 0.03 | 0.03 | 93 | 1021.5 |
| 20260902041001 | 11 | 342 | 0.0 | 0.0 | 0.03 | 0.03 | 0.03 | 93 | 1021.3 |
| 20260902040501 | 11 | 342 | 0.0 | 0.0 | 0.03 | 0.03 | 0.03 | 93 | 1021.4 |
| 20260902040001 | 11 | 342 | 0.0 | 0.0 | 0.03 | 0.03 | 0.03 | 93 | 1021.4 |
| 20260902035500 | 11 | 342 | 0.0 | 0.0 | 0.00 | 0.00 | 0.00 | 93 | 1021.5 |
| 20260902035100 | 11 | 342 | 0.0 | 0.0 | 0.00 | 0.00 | 0.00 | 93 | 1021.4 |
| 20260902034605 | 11 | 342 | 0.0 | 0.0 | 0.00 | 0.00 | 0.00 | 93 | 1021.5 |
| 20260902034100 | 11 | 342 | 0.0 | 0.0 | 0.00 | 0.00 | 0.00 | 93 | 1021.5 |
| 20260902033600 | 11 | 342 | 0.0 | 3.2 | 0.00 | 0.00 | 0.00 | 93 | 1021.5 |
| 20260902033100 | 11 | 342 | 0.0 | 3.2 | 0.00 | 0.00 | 0.00 | 93 | 1021.4 |
| 20260902032600 | 11 | 342 | 0.0 | 4.8 | 0.00 | 0.00 | 0.00 | 93 | 1021.5 |
| 20260902032059 | 11 | 342 | 1.6 | 4.8 | 0.00 | 0.00 | 0.00 | 93 | 1021.6 |
| 20260902031615 | 11 | 342 | 0.0 | 0.0 | 0.00 | 0.00 | 0.00 | 93 | 1021.5 |
| 20260902031059 | 11 | 342 | 0.0 | 0.0 | 0.00 | 0.00 | 0.00 | 93 | 1021.5 |
| 20260902030558 | 11 | 342 | 0.0 | 0.0 | 0.00 | 0.00 | 0.00 | 93 | 1021.5 |
| 20260902030059 | 11 | 342 | 0.0 | 0.0 | 0.00 | 0.00 | 0.00 | 93 | 1021.6 |
| 20260902025558 | 11 | 342 | 0.0 | 0.0 | 0.00 | 0.00 | 0.00 | 93 | 1021.6 |
| 20260902025058 | 11 | 342 | 0.0 | 0.0 | 0.00 | 0.00 | 0.00 | 93 | 1021.7 |
| 20260902024618 | 11 | 342 | 0.0 | 0.0 | 0.00 | 0.00 | 0.00 | 93 | 1021.7 |
| 20260902024058 | 11 | 342 | 0.0 | 0.0 | 0.00 | 0.00 | 0.00 | 93 | 1021.7 |
| 20260902023558 | 11 | 342 | 0.0 | 0.0 | 0.00 | 0.00 | 0.00 | 93 | 1021.7 |
| 20260902023104 | 11 | 342 | 0.0 | 0.0 | 0.00 | 0.00 | 0.00 | 93 | 1021.6 |
| 20260902022558 | 11 | 342 | 0.0 | 0.0 | 0.00 | 0.00 | 0.00 | 93 | 1021.7 |
| 20260902022057 | 11 | 342 | 0.0 | 0.0 | 0.00 | 0.00 | 0.00 | 93 | 1021.7 |
| 20260902021604 | 11 | 342 | 0.0 | 0.0 | 0.00 | 0.00 | 0.00 | 93 | 1021.6 |
| 20260902021056 | 11 | 342 | 0.0 | 0.0 | 0.00 | 0.00 | 0.00 | 93 | 1021.5 |
| 20260902020556 | 11 | 342 | 0.0 | 0.0 | 0.00 | 0.00 | 0.00 | 93 | 1021.5 |
| 20260902020054 | 11 | 342 | 0.0 | 0.0 | 0.00 | 0.00 | 0.00 | 93 | 1021.6 |
| 20260902015554 | 11 | 342 | 0.0 | 0.0 | 0.00 | 0.00 | 0.00 | 93 | 1021.6 |
| 20260902015056 | 11 | 342 | 0.0 | 0.0 | 0.00 | 0.00 | 0.00 | 93 | 1021.6 |
| 20260902014553 | 12 | 342 | 0.0 | 0.0 | 0.00 | 0.00 | 0.00 | 93 | 1021.6 |
| 20260902014053 | 12 | 342 | 0.0 | 0.0 | 0.00 | 0.00 | 0.00 | 93 | 1021.4 |
| 20260902013557 | 12 | 342 | 0.0 | 0.0 | 0.00 | 0.00 | 0.00 | 93 | 1021.4 |
| 20260902013053 | 12 | 342 | 0.0 | 0.0 | 0.00 | 0.00 | 0.00 | 93 | 1021.5 |
| 20260902012552 | 12 | 342 | 0.0 | 0.0 | 0.00 | 0.00 | 0.00 | 93 | 1021.3 |
| 20260902012052 | 11 | 342 | 0.0 | 0.0 | 0.00 | 0.00 | 0.00 | 93 | 1021.4 |
| 20260902011559 | 11 | 342 | 0.0 | 0.0 | 0.00 | 0.00 | 0.00 | 92 | 1021.4 |
| 20260902011051 | 12 | 342 | 0.0 | 0.0 | 0.00 | 0.00 | 0.00 | 92 | 1021.4 |
| 20260902010550 | 12 | 342 | 0.0 | 0.0 | 0.00 | 0.00 | 0.00 | 93 | 1021.4 |
| 20260902010050 | 12 | 342 | 0.0 | 0.0 | 0.00 | 0.00 | 0.00 | 92 | 1021.4 |
| 20260902005549 | 12 | 342 | 0.0 | 0.0 | 0.00 | 0.00 | 0.00 | 92 | 1021.4 |
| 20260902005049 | 12 | 342 | 0.0 | 0.0 | 0.00 | 0.00 | 0.00 | 93 | 1021.4 |
| 20260902004551 | 12 | 342 | 0.0 | 0.0 | 0.00 | 0.00 | 0.00 | 92 | 1021.3 |
| 20260902004048 | 12 | 342 | 0.0 | 0.0 | 0.00 | 0.00 | 0.00 | 92 | 1021.5 |
| 20260902003547 | 12 | 342 | 0.0 | 0.0 | 0.00 | 0.00 | 0.00 | 92 | 1021.4 |
| 20260902003047 | 12 | 342 | 0.0 | 0.0 | 0.00 | 0.00 | 0.00 | 92 | 1021.5 |
| 20260902002549 | 12 | 342 | 0.0 | 0.0 | 0.00 | 0.00 | 0.00 | 92 | 1021.8 |
| 20260902002046 | 12 | 342 | 0.0 | 0.0 | 0.00 | 0.00 | 0.00 | 92 | 1021.9 |
| 20260902001556 | 12 | 342 | 0.0 | 0.0 | 0.00 | 0.00 | 0.00 | 92 | 1021.8 |
| 20260902001046 | 12 | 342 | 0.0 | 0.0 | 0.00 | 0.00 | 0.00 | 92 | 1021.9 |
| 20260902000547 | 12 | 342 | 0.0 | 0.0 | 0.00 | 0.00 | 0.00 | 92 | 1021.9 |
| 20260902000046 | 12 | 342 | 0.0 | 0.0 | 0.00 | 0.00 | 0.00 | 92 | 1021.9 |
| 20260901235545 | 12 | 342 | 0.0 | 0.0 | 0.00 | 0.00 | 0.00 | 92 | 1021.9 |
| 20260901235044 | 12 | 342 | 0.0 | 0.0 | 0.00 | 0.00 | 0.00 | 92 | 1021.9 |
| 20260901234545 | 12 | 342 | 0.0 | 0.0 | 0.00 | 0.00 | 0.00 | 91 | 1021.9 |
| 20260901234044 | 12 | 342 | 0.0 | 0.0 | 0.00 | 0.00 | 0.00 | 91 | 1021.8 |
| 20260901233545 | 12 | 342 | 0.0 | 0.0 | 0.00 | 0.00 | 0.00 | 92 | 1022.0 |
| 20260901233054 | 12 | 342 | 0.0 | 0.0 | 0.00 | 0.00 | 0.00 | 91 | 1022.0 |
| 20260901232546 | 12 | 342 | 0.0 | 0.0 | 0.00 | 0.00 | 0.00 | 91 | 1022.0 |
| 20260901232042 | 12 | 342 | 0.0 | 0.0 | 0.00 | 0.00 | 0.00 | 91 | 1021.9 |
| 20260901231543 | 12 | 342 | 0.0 | 0.0 | 0.00 | 0.00 | 0.00 | 91 | 1021.9 |
| 20260901231040 | 12 | 342 | 0.0 | 0.0 | 0.00 | 0.00 | 0.00 | 90 | 1022.0 |
| 20260901230540 | 12 | 342 | 0.0 | 0.0 | 0.00 | 0.00 | 0.00 | 90 | 1021.8 |
| 20260901230040 | 12 | 342 | 0.0 | 0.0 | 0.00 | 0.00 | 0.00 | 90 | 1021.7 |
| 20260901225538 | 12 | 342 | 0.0 | 0.0 | 0.00 | 0.00 | 0.00 | 88 | 1021.7 |
| 20260901225038 | 13 | 342 | 0.0 | 0.0 | 0.00 | 0.00 | 0.00 | 87 | 1021.7 |
| 20260901224537 | 13 | 342 | 0.0 | 0.0 | 0.00 | 0.00 | 0.00 | 88 | 1021.5 |
| 20260901224036 | 13 | 342 | 0.0 | 0.0 | 0.00 | 0.00 | 0.00 | 88 | 1021.7 |
| 20260901223536 | 13 | 342 | 0.0 | 0.0 | 0.00 | 0.00 | 0.00 | 88 | 1021.7 |
| 20260901223036 | 13 | 342 | 0.0 | 0.0 | 0.00 | 0.00 | 0.00 | 88 | 1021.7 |
| 20260901222535 | 13 | 342 | 0.0 | 0.0 | 0.00 | 0.00 | 0.00 | 87 | 1021.6 |
| 20260901222035 | 13 | 342 | 0.0 | 0.0 | 0.00 | 0.00 | 0.00 | 87 | 1021.7 |
| 20260901221535 | 14 | 342 | 0.0 | 0.0 | 0.00 | 0.00 | 0.00 | 87 | 1021.6 |
| 20260901221033 | 14 | 342 | 0.0 | 0.0 | 0.00 | 0.00 | 0.00 | 88 | 1021.6 |
| 20260901220533 | 14 | 342 | 0.0 | 0.0 | 0.00 | 0.00 | 0.00 | 87 | 1021.5 |
| 20260901220035 | 14 | 342 | 0.0 | 3.2 | 0.00 | 0.00 | 0.00 | 86 | 1021.5 |
| 20260901215531 | 15 | 342 | 0.0 | 3.2 | 0.00 | 0.00 | 0.00 | 86 | 1021.4 |
| 20260901215031 | 15 | 342 | 0.0 | 1.6 | 0.00 | 0.00 | 0.00 | 86 | 1021.4 |
| 20260901214537 | 15 | 342 | 0.0 | 3.2 | 0.00 | 0.00 | 0.00 | 86 | 1021.4 |
| 20260901214030 | 15 | 342 | 0.0 | 3.2 | 0.00 | 0.00 | 0.00 | 86 | 1021.5 |
| 20260901213530 | 15 | 342 | 1.6 | 3.2 | 0.00 | 0.00 | 0.00 | 86 | 1021.4 |
| 20260901213030 | 15 | 342 | 0.0 | 3.2 | 0.00 | 0.00 | 0.00 | 86 | 1021.4 |
| 20260901212530 | 15 | 342 | 0.0 | 3.2 | 0.00 | 0.00 | 0.00 | 86 | 1021.4 |
| 20260901212030 | 15 | 342 | 0.0 | 6.4 | 0.00 | 0.00 | 0.00 | 86 | 1021.4 |
| 20260901211530 | 15 | 342 | 0.0 | 3.2 | 0.00 | 0.00 | 0.00 | 87 | 1021.4 |
| 20260901211030 | 15 | 342 | 0.0 | 0.0 | 0.00 | 0.00 | 0.00 | 88 | 1021.4 |
| 20260901210530 | 14 | 342 | 0.0 | 0.0 | 0.00 | 0.00 | 0.00 | 87 | 1021.4 |
| 20260901210029 | 14 | 342 | 0.0 | 1.6 | 0.00 | 0.00 | 0.00 | 87 | 1021.4 |
| 20260901205529 | 14 | 342 | 0.0 | 1.6 | 0.00 | 0.00 | 0.00 | 86 | 1021.5 |
| 20260901205029 | 15 | 342 | 0.0 | 0.0 | 0.00 | 0.00 | 0.00 | 85 | 1021.5 |
| 20260901204528 | 15 | 342 | 0.0 | 1.6 | 0.00 | 0.00 | 0.00 | 84 | 1021.5 |
| 20260901204029 | 15 | 342 | 0.0 | 1.6 | 0.00 | 0.00 | 0.00 | 84 | 1021.6 |
| 20260901203529 | 16 | 342 | 0.0 | 0.0 | 0.00 | 0.00 | 0.00 | 84 | 1021.5 |
| 20260901203035 | 16 | 342 | 0.0 | 0.0 | 0.00 | 0.00 | 0.00 | 84 | 1021.5 |
| 20260901202529 | 16 | 342 | 0.0 | 1.6 | 0.00 | 0.00 | 0.00 | 83 | 1021.6 |
| 20260901202029 | 16 | 342 | 0.0 | 4.8 | 0.00 | 0.00 | 0.00 | 83 | 1021.6 |
| 20260901201528 | 16 | 342 | 1.6 | 4.8 | 0.00 | 0.00 | 0.00 | 83 | 1021.6 |
| 20260901201028 | 16 | 341 | 0.0 | 3.2 | 0.00 | 0.00 | 0.00 | 82 | 1021.7 |
| 20260901200527 | 16 | 341 | 1.6 | 3.2 | 0.00 | 0.00 | 0.00 | 80 | 1021.5 |
| 20260901200034 | 16 | 341 | 0.0 | 4.8 | 0.00 | 0.00 | 0.00 | 80 | 1021.6 |
| 20260901195528 | 16 | 341 | 1.6 | 4.8 | 0.00 | 0.00 | 0.00 | 80 | 1021.5 |
| 20260901195028 | 17 | 341 | 1.6 | 3.2 | 0.00 | 0.00 | 0.00 | 80 | 1021.5 |
| 20260901194527 | 17 | 341 | 1.6 | 3.2 | 0.00 | 0.00 | 0.00 | 79 | 1021.4 |
| 20260901194027 | 17 | 341 | 0.0 | 3.2 | 0.00 | 0.00 | 0.00 | 79 | 1021.3 |
| 20260901193528 | 17 | 341 | 0.0 | 3.2 | 0.00 | 0.00 | 0.00 | 78 | 1021.2 |
| 20260901193026 | 17 | 341 | 0.0 | 3.2 | 0.00 | 0.00 | 0.00 | 77 | 1021.3 |
| 20260901192526 | 17 | 341 | 0.0 | 3.2 | 0.00 | 0.00 | 0.00 | 76 | 1021.4 |
| 20260901192027 | 17 | 341 | 0.0 | 4.8 | 0.00 | 0.00 | 0.00 | 75 | 1021.3 |
| 20260901191527 | 18 | 341 | 3.2 | 4.8 | 0.00 | 0.00 | 0.00 | 74 | 1021.3 |
| 20260901191026 | 18 | 341 | 1.6 | 3.2 | 0.00 | 0.00 | 0.00 | 73 | 1021.2 |
| 20260901190528 | 18 | 341 | 0.0 | 3.2 | 0.00 | 0.00 | 0.00 | 73 | 1021.1 |
| 20260901190030 | 18 | 341 | 1.6 | 3.2 | 0.00 | 0.00 | 0.00 | 72 | 1021.1 |
| 20260901185526 | 18 | 341 | 0.0 | 3.2 | 0.00 | 0.00 | 0.00 | 72 | 1021.1 |
| 20260901185028 | 19 | 341 | 0.0 | 3.2 | 0.00 | 0.00 | 0.00 | 71 | 1020.9 |
| 20260901184525 | 19 | 341 | 1.6 | 4.8 | 0.00 | 0.00 | 0.00 | 70 | 1020.9 |
| 20260901184026 | 19 | 341 | 1.6 | 4.8 | 0.00 | 0.00 | 0.00 | 69 | 1020.8 |
| 20260901183529 | 19 | 341 | 1.6 | 4.8 | 0.00 | 0.00 | 0.00 | 69 | 1020.8 |
| 20260901183028 | 20 | 341 | 1.6 | 6.4 | 0.00 | 0.00 | 0.00 | 69 | 1020.8 |
| 20260901182528 | 20 | 341 | 3.2 | 6.4 | 0.00 | 0.00 | 0.00 | 69 | 1020.7 |
| 20260901182024 | 20 | 341 | 3.2 | 6.4 | 0.00 | 0.00 | 0.00 | 69 | 1020.6 |
| 20260901181528 | 20 | 341 | 3.2 | 6.4 | 0.00 | 0.00 | 0.00 | 68 | 1020.5 |
| 20260901181025 | 20 | 340 | 3.2 | 6.4 | 0.00 | 0.00 | 0.00 | 68 | 1020.5 |
| 20260901180524 | 20 | 340 | 3.2 | 8.0 | 0.00 | 0.00 | 0.00 | 67 | 1020.5 |
| 20260901180024 | 20 | 339 | 3.2 | 9.7 | 0.00 | 0.00 | 0.00 | 66 | 1020.5 |
| 20260901175527 | 20 | 339 | 3.2 | 9.7 | 0.00 | 0.03 | 0.00 | 66 | 1020.4 |
| 20260901175023 | 21 | 339 | 4.8 | 14.5 | 0.00 | 0.03 | 0.00 | 65 | 1020.4 |
| 20260901174524 | 21 | 334 | 4.8 | 14.5 | 0.00 | 0.03 | 0.00 | 64 | 1020.5 |
| 20260901174024 | 21 | 347 | 3.2 | 12.9 | 0.00 | 0.03 | 0.00 | 63 | 1020.4 |
| 20260901173527 | 21 | 13 | 6.4 | 12.9 | 0.00 | 0.03 | 0.00 | 61 | 1020.3 |
| 20260901173023 | 21 | 331 | 4.8 | 17.7 | 0.00 | 0.03 | 0.00 | 60 | 1020.3 |
| 20260901172525 | 22 | 342 | 3.2 | 17.7 | 0.00 | 0.03 | 0.00 | 54 | 1020.2 |
| 20260901172023 | 22 | 246 | 1.6 | 8.0 | 0.00 | 0.03 | 0.00 | 47 | 1020.1 |
| 20260901171523 | 22 | 246 | 1.6 | 3.2 | 0.00 | 0.03 | 0.00 | 47 | 1020.0 |
| 20260901171022 | 22 | 246 | 1.6 | 11.3 | 0.00 | 0.03 | 0.00 | 45 | 1020.0 |
| 20260901170522 | 22 | 246 | 4.8 | 11.3 | 0.00 | 0.03 | 0.00 | 46 | 1019.9 |
| 20260901170023 | 22 | 246 | 4.8 | 9.7 | 0.00 | 0.03 | 0.00 | 45 | 1019.9 |
| 20260901165522 | 23 | 254 | 1.6 | 8.0 | 0.00 | 0.03 | 0.00 | 44 | 1019.9 |
| 20260901165022 | 23 | 254 | 1.6 | 11.3 | 0.00 | 0.03 | 0.00 | 45 | 1020.0 |
| 20260901164522 | 23 | 254 | 3.2 | 12.9 | 0.00 | 0.03 | 0.00 | 43 | 1020.0 |
| 20260901164022 | 23 | 255 | 4.8 | 14.5 | 0.00 | 0.03 | 0.00 | 44 | 1020.0 |
| 20260901163526 | 23 | 241 | 3.2 | 14.5 | 0.00 | 0.03 | 0.00 | 45 | 1019.9 |
| 20260901163022 | 23 | 234 | 4.8 | 12.9 | 0.00 | 0.03 | 0.00 | 42 | 1020.0 |
| 20260901162521 | 24 | 273 | 1.6 | 6.4 | 0.00 | 0.03 | 0.00 | 42 | 1019.9 |
| 20260901162021 | 24 | 275 | 3.2 | 6.4 | 0.00 | 0.03 | 0.00 | 41 | 1019.9 |
| 20260901161521 | 24 | 292 | 1.6 | 6.4 | 0.00 | 0.03 | 0.00 | 42 | 1020.0 |
| 20260901161025 | 24 | 257 | 3.2 | 8.0 | 0.00 | 0.03 | 0.00 | 41 | 1019.9 |
| 20260901160520 | 24 | 256 | 3.2 | 12.9 | 0.00 | 0.03 | 0.00 | 42 | 1019.9 |
| 20260901160020 | 24 | 255 | 3.2 | 19.3 | 0.00 | 0.03 | 0.00 | 42 | 1020.0 |
| 20260901155520 | 24 | 260 | 9.7 | 19.3 | 0.00 | 0.03 | 0.00 | 41 | 1019.9 |
| 20260901155020 | 25 | 244 | 3.2 | 11.3 | 0.00 | 0.03 | 0.00 | 39 | 1020.0 |
| 20260901154527 | 25 | 257 | 4.8 | 12.9 | 0.00 | 0.03 | 0.00 | 41 | 1020.1 |
| 20260901154019 | 24 | 259 | 4.8 | 19.3 | 0.00 | 0.03 | 0.00 | 41 | 1020.1 |
| 20260901153520 | 23 | 252 | 12.9 | 19.3 | 0.00 | 0.03 | 0.00 | 44 | 1020.1 |
| 20260901153030 | 24 | 246 | 4.8 | 17.7 | 0.00 | 0.03 | 0.00 | 45 | 1020.2 |
| 20260901152519 | 24 | 254 | 8.0 | 20.9 | 0.00 | 0.03 | 0.00 | 46 | 1020.1 |
| 20260901152019 | 23 | 234 | 12.9 | 20.9 | 0.00 | 0.03 | 0.00 | 46 | 1020.1 |
| 20260901151520 | 24 | 248 | 11.3 | 22.5 | 0.00 | 0.03 | 0.00 | 45 | 1020.1 |
| 20260901151018 | 24 | 252 | 9.7 | 19.3 | 0.00 | 0.03 | 0.00 | 47 | 1020.0 |
| 20260901150520 | 24 | 242 | 6.4 | 17.7 | 0.00 | 0.03 | 0.00 | 44 | 1020.1 |
| 20260901150020 | 25 | 246 | 8.0 | 17.7 | 0.00 | 0.03 | 0.00 | 43 | 1020.1 |
| 20260901145518 | 24 | 243 | 8.0 | 17.7 | 0.00 | 0.03 | 0.00 | 46 | 1020.1 |
| 20260901145018 | 24 | 250 | 4.8 | 19.3 | 0.00 | 0.03 | 0.00 | 44 | 1020.0 |
| 20260901144525 | 24 | 250 | 12.9 | 19.3 | 0.00 | 0.03 | 0.00 | 44 | 1020.0 |
| 20260901144020 | 25 | 244 | 8.0 | 16.1 | 0.00 | 0.03 | 0.00 | 42 | 1020.2 |
| 20260901143517 | 25 | 231 | 4.8 | 20.9 | 0.00 | 0.03 | 0.00 | 48 | 1020.1 |
| 20260901143018 | 24 | 250 | 8.0 | 20.9 | 0.00 | 0.03 | 0.00 | 47 | 1020.1 |
| 20260901142517 | 25 | 268 | 8.0 | 19.3 | 0.00 | 0.03 | 0.00 | 43 | 1020.3 |
| 20260901142020 | 25 | 279 | 3.2 | 16.1 | 0.00 | 0.03 | 0.00 | 43 | 1020.3 |
| 20260901141516 | 25 | 252 | 8.0 | 16.1 | 0.00 | 0.03 | 0.00 | 45 | 1020.3 |
| 20260901141018 | 24 | 231 | 4.8 | 16.1 | 0.00 | 0.03 | 0.00 | 48 | 1020.3 |
| 20260901140519 | 25 | 241 | 8.0 | 14.5 | 0.00 | 0.03 | 0.00 | 47 | 1020.4 |
| 20260901140015 | 25 | 275 | 4.8 | 20.9 | 0.00 | 0.03 | 0.00 | 47 | 1020.4 |
| 20260901135517 | 24 | 258 | 9.7 | 20.9 | 0.00 | 0.03 | 0.00 | 50 | 1020.5 |
| 20260901135014 | 24 | 247 | 3.2 | 19.3 | 0.00 | 0.03 | 0.00 | 47 | 1020.5 |
| 20260901134514 | 24 | 259 | 9.7 | 17.7 | 0.00 | 0.03 | 0.00 | 51 | 1020.5 |
| 20260901134014 | 24 | 269 | 3.2 | 20.9 | 0.00 | 0.03 | 0.00 | 49 | 1020.6 |
| 20260901133514 | 23 | 232 | 6.4 | 22.5 | 0.00 | 0.03 | 0.00 | 51 | 1020.6 |
| 20260901133014 | 23 | 234 | 11.3 | 22.5 | 0.00 | 0.03 | 0.00 | 51 | 1020.5 |
| 20260901132514 | 25 | 254 | 6.4 | 19.3 | 0.00 | 0.03 | 0.00 | 49 | 1020.6 |
| 20260901132014 | 25 | 267 | 3.2 | 19.3 | 0.00 | 0.03 | 0.00 | 49 | 1020.6 |
| 20260901131512 | 25 | 321 | 3.2 | 12.9 | 0.00 | 0.03 | 0.00 | 51 | 1020.6 |
| 20260901131011 | 25 | 334 | 3.2 | 17.7 | 0.00 | 0.03 | 0.00 | 49 | 1020.6 |
| 20260901130511 | 23 | 259 | 3.2 | 22.5 | 0.00 | 0.03 | 0.00 | 51 | 1020.7 |
| 20260901130010 | 24 | 243 | 6.4 | 12.9 | 0.00 | 0.03 | 0.00 | 52 | 1020.7 |
| 20260901125514 | 24 | 252 | 3.2 | 20.9 | 0.00 | 0.03 | 0.00 | 52 | 1020.7 |
| 20260901125010 | 24 | 314 | 4.8 | 20.9 | 0.00 | 0.03 | 0.00 | 55 | 1020.6 |
| 20260901124514 | 24 | 276 | 1.6 | 6.4 | 0.00 | 0.03 | 0.00 | 54 | 1020.8 |
| 20260901124012 | 23 | 280 | 1.6 | 6.4 | 0.00 | 0.03 | 0.00 | 59 | 1020.8 |
| 20260901123509 | 22 | 322 | 0.0 | 4.8 | 0.00 | 0.03 | 0.00 | 60 | 1020.8 |
| 20260901123006 | 22 | 321 | 1.6 | 8.0 | 0.00 | 0.03 | 0.00 | 62 | 1020.9 |
| 20260901122507 | 21 | 320 | 4.8 | 8.0 | 0.00 | 0.03 | 0.00 | 62 | 1020.9 |
| 20260901122005 | 21 | 315 | 3.2 | 6.4 | 0.00 | 0.03 | 0.00 | 63 | 1021.0 |
| 20260901121505 | 21 | 315 | 1.6 | 8.0 | 0.00 | 0.03 | 0.00 | 64 | 1021.0 |
| 20260901121005 | 21 | 279 | 4.8 | 9.7 | 0.00 | 0.03 | 0.00 | 64 | 1020.9 |
| 20260901120505 | 21 | 239 | 1.6 | 8.0 | 0.00 | 0.03 | 0.00 | 65 | 1020.9 |
| 20260901120007 | 21 | 239 | 3.2 | 11.3 | 0.00 | 0.03 | 0.00 | 64 | 1020.9 |
| 20260901115505 | 22 | 243 | 6.4 | 12.9 | 0.00 | 0.03 | 0.00 | 63 | 1021.0 |
| 20260901115004 | 22 | 249 | 1.6 | 12.9 | 0.00 | 0.03 | 0.00 | 66 | 1020.9 |
| 20260901114504 | 21 | 248 | 3.2 | 12.9 | 0.00 | 0.03 | 0.00 | 66 | 1021.0 |
| 20260901114004 | 21 | 215 | 8.0 | 16.1 | 0.00 | 0.03 | 0.00 | 66 | 1021.0 |
| 20260901113504 | 22 | 205 | 8.0 | 17.7 | 0.00 | 0.03 | 0.00 | 66 | 1021.0 |
| 20260901113004 | 22 | 226 | 9.7 | 17.7 | 0.00 | 0.03 | 0.00 | 63 | 1021.1 |
| 20260901112503 | 22 | 190 | 8.0 | 16.1 | 0.00 | 0.03 | 0.00 | 65 | 1021.1 |
| 20260901112003 | 22 | 219 | 4.8 | 19.3 | 0.00 | 0.03 | 0.00 | 65 | 1021.1 |
| 20260901111503 | 22 | 240 | 9.7 | 19.3 | 0.00 | 0.03 | 0.00 | 67 | 1021.1 |
| 20260901111003 | 21 | 229 | 9.7 | 17.7 | 0.00 | 0.03 | 0.00 | 68 | 1021.3 |
| 20260901110502 | 21 | 182 | 11.3 | 17.7 | 0.00 | 0.03 | 0.00 | 67 | 1021.2 |
| 20260901110004 | 21 | 205 | 9.7 | 19.3 | 0.00 | 0.03 | 0.00 | 66 | 1021.3 |
| 20260901105503 | 22 | 237 | 9.7 | 19.3 | 0.00 | 0.03 | 0.00 | 66 | 1021.3 |
| 20260901105005 | 22 | 230 | 12.9 | 17.7 | 0.00 | 0.03 | 0.00 | 66 | 1021.3 |
| 20260901104501 | 22 | 207 | 8.0 | 16.1 | 0.00 | 0.03 | 0.00 | 68 | 1021.4 |
| 20260901104100 | 21 | 221 | 8.0 | 16.1 | 0.00 | 0.03 | 0.00 | 70 | 1021.3 |
| 20260901103601 | 20 | 206 | 4.8 | 16.1 | 0.00 | 0.03 | 0.00 | 72 | 1021.3 |
| 20260901103100 | 20 | 226 | 8.0 | 19.3 | 0.00 | 0.03 | 0.00 | 71 | 1021.3 |
| 20260901102600 | 21 | 210 | 6.4 | 14.5 | 0.00 | 0.03 | 0.00 | 70 | 1021.3 |
| 20260901102059 | 21 | 172 | 4.8 | 11.3 | 0.00 | 0.03 | 0.00 | 70 | 1021.3 |
| 20260901101611 | 21 | 213 | 6.4 | 11.3 | 0.00 | 0.03 | 0.00 | 69 | 1021.3 |
| 20260901101102 | 21 | 201 | 4.8 | 9.7 | 0.00 | 0.03 | 0.00 | 69 | 1021.4 |
| 20260901100601 | 22 | 186 | 3.2 | 8.0 | 0.00 | 0.03 | 0.00 | 68 | 1021.5 |